Location: Granada
(37.1830°N, 3.6000°W)
Time: 23:17:33
(UTC+02:00)

Iridium 70 - Visible Passes

Search period start: 02 September 2014 00:00
Search period end: 12 September 2014 00:00
Orbit: 776 x 779 km, 86.4° (Epoch: 02 September)

Date Brightness Start Highest point End Pass type
(mag) Time Alt. Az. Time Alt. Az. Time Alt. Az.
02 Sep 5.4 22:56:51 70° S 22:57:30 89° W 23:02:43 10° N visible
03 Sep 5.7 22:22:59 41° ESE 22:24:03 48° E 22:29:02 10° NNE visible
04 Sep 7.9 00:03:25 15° W 00:05:01 17° WNW 00:08:22 10° NW visible
04 Sep 6.5 21:49:02 21° ESE 21:50:43 25° E 21:54:55 10° NNE visible
04 Sep 7.1 23:29:28 25° WSW 23:31:15 32° W 23:35:52 10° NNW visible
05 Sep 7.2 21:15:05 10° ESE 21:17:30 13° ENE 21:19:55 10° NE visible
05 Sep 5.9 22:55:27 34° SSW 22:57:36 61° W 23:02:45 10° N visible
06 Sep 5.4 22:21:20 28° SSE 22:24:05 71° E 22:29:16 10° N visible
07 Sep 8.3 00:03:42 10° W 00:05:20 11° WNW 00:06:58 10° NW visible
07 Sep 6.0 21:47:04 16° SE 21:50:41 37° E 21:55:26 10° NNE visible
07 Sep 7.7 23:27:30 10° SW 23:31:28 22° W 23:35:28 10° NNW visible
08 Sep 6.8 21:13:44 10° SE 21:17:24 20° E 21:21:04 10° NE visible
08 Sep 6.7 22:52:59 11° SSW 22:57:45 41° W 23:02:39 10° NNW visible
09 Sep 5.6 22:18:58 10° S 22:24:09 78° W 22:29:23 10° N visible
10 Sep 5.6 21:45:38 10° SSE 21:50:41 55° E 21:55:45 10° NNE visible
10 Sep 8.2 23:28:50 10° WSW 23:31:45 15° WNW 23:34:40 10° NW visible
11 Sep 6.4 21:12:55 10° SE 21:17:20 29° E 21:21:45 10° NNE visible
11 Sep 7.4 22:53:32 10° SW 22:57:57 28° W 23:02:23 10° NNW visible
